Wetterdaten: Woche 22.11.04 - 28.11.04 (KW48)
Datum Zeit Temperatur Luftfeuchte Luftdruck Niederschlag Taupunkt Windchill Wind
22.11.2004 00:00 1,4 C 87 % 1024 hPa 0,0 l/m -0,5 C -3,3 C 13,8 km/h (3 Bft)
22.11.2004 01:00 1,4 C 91 % 1023 hPa 1,0 l/m 0,1 C -1,8 C 11,7 km/h (2 Bft)
22.11.2004 02:00 1,5 C 97 % 1023 hPa 0,0 l/m 1,0 C -2,0 C 12,4 km/h (3 Bft)
22.11.2004 03:00 1,7 C 98 % 1023 hPa 0,0 l/m 1,5 C -2,3 C 12,4 km/h (3 Bft)
22.11.2004 04:00 1,9 C 100 % 1023 hPa 0,0 l/m 1,8 C -4,0 C 16,6 km/h (3 Bft)
22.11.2004 05:00 1,8 C 100 % 1023 hPa 0,0 l/m 1,8 C -4,5 C 16,4 km/h (3 Bft)
22.11.2004 06:00 2,0 C 100 % 1023 hPa 0,0 l/m 2,0 C -4,7 C 17,2 km/h (3 Bft)
22.11.2004 07:00 2,4 C 100 % 1023 hPa 0,0 l/m 2,4 C -4,6 C 18,0 km/h (3 Bft)
22.11.2004 08:00 3,1 C 100 % 1023 hPa 0,0 l/m 3,1 C -3,1 C 17,0 km/h (3 Bft)
22.11.2004 09:00 4,4 C 100 % 1024 hPa 0,0 l/m 4,4 C -1,0 C 16,8 km/h (3 Bft)
22.11.2004 10:00 5,5 C 94 % 1024 hPa 0,0 l/m 4,6 C -1,2 C 19,7 km/h (3 Bft)
22.11.2004 11:00 6,3 C 87 % 1024 hPa 0,0 l/m 4,2 C -0,6 C 20,7 km/h (4 Bft)
22.11.2004 12:00 7,0 C 84 % 1023 hPa 0,0 l/m 4,4 C -0,0 C 22,2 km/h (4 Bft)
22.11.2004 13:00 7,9 C 80 % 1022 hPa 0,0 l/m 4,6 C 0,6 C 23,7 km/h (4 Bft)
22.11.2004 14:00 8,6 C 76 % 1022 hPa 0,0 l/m 4,5 C 2,0 C 21,8 km/h (4 Bft)
22.11.2004 15:00 8,7 C 73 % 1022 hPa 0,0 l/m 4,2 C 2,6 C 21,6 km/h (4 Bft)
22.11.2004 16:00 8,4 C 74 % 1022 hPa 0,0 l/m 4,0 C 3,1 C 17,8 km/h (3 Bft)
22.11.2004 17:00 8,2 C 74 % 1022 hPa 0,0 l/m 3,9 C 3,1 C 18,0 km/h (3 Bft)
22.11.2004 18:00 8,2 C 73 % 1021 hPa 0,0 l/m 3,7 C 1,3 C 22,7 km/h (4 Bft)
22.11.2004 19:00 8,2 C 72 % 1022 hPa 0,0 l/m 3,4 C 1,6 C 21,4 km/h (4 Bft)
22.11.2004 20:00 8,1 C 70 % 1021 hPa 0,0 l/m 3,0 C 1,5 C 21,8 km/h (4 Bft)
22.11.2004 21:00 8,1 C 71 % 1022 hPa 0,0 l/m 3,2 C 1,3 C 22,6 km/h (4 Bft)
22.11.2004 22:00 8,0 C 73 % 1022 hPa 0,0 l/m 3,4 C 1,1 C 23,3 km/h (4 Bft)
22.11.2004 23:00 7,9 C 74 % 1021 hPa 0,0 l/m 3,5 C 1,4 C 21,7 km/h (4 Bft)
23.11.2004 00:00 7,5 C 79 % 1022 hPa 0,0 l/m 4,2 C 1,6 C 19,2 km/h (3 Bft)
23.11.2004 01:00 7,0 C 87 % 1022 hPa 0,0 l/m 5,0 C 1,6 C 18,0 km/h (3 Bft)
23.11.2004 02:00 7,1 C 86 % 1022 hPa 0,0 l/m 4,9 C 2,0 C 16,9 km/h (3 Bft)
23.11.2004 03:00 7,2 C 86 % 1022 hPa 0,0 l/m 4,9 C 2,7 C 15,8 km/h (3 Bft)
23.11.2004 04:00 7,2 C 87 % 1022 hPa 0,0 l/m 5,2 C 3,0 C 15,1 km/h (3 Bft)
23.11.2004 05:00 7,0 C 91 % 1022 hPa 0,0 l/m 5,5 C 2,8 C 14,8 km/h (3 Bft)
23.11.2004 06:00 6,8 C 93 % 1022 hPa 0,0 l/m 5,8 C 3,2 C 13,2 km/h (3 Bft)
23.11.2004 07:00 7,0 C 90 % 1022 hPa 0,0 l/m 5,5 C 3,4 C 13,6 km/h (3 Bft)
23.11.2004 08:00 7,2 C 89 % 1023 hPa 0,0 l/m 5,6 C 3,1 C 15,0 km/h (3 Bft)
23.11.2004 09:00 7,6 C 87 % 1024 hPa 0,0 l/m 5,6 C 3,1 C 15,3 km/h (3 Bft)
23.11.2004 10:00 8,0 C 83 % 1024 hPa 0,0 l/m 5,3 C 3,1 C 16,8 km/h (3 Bft)
23.11.2004 11:00 7,9 C 88 % 1025 hPa 1,0 l/m 6,1 C 3,4 C 16,4 km/h (3 Bft)
23.11.2004 12:00 8,4 C 87 % 1024 hPa 0,0 l/m 6,4 C 3,4 C 17,7 km/h (3 Bft)
23.11.2004 13:00 8,8 C 81 % 1024 hPa 0,0 l/m 5,8 C 4,8 C 14,6 km/h (3 Bft)
23.11.2004 14:00 8,7 C 79 % 1024 hPa 0,0 l/m 5,3 C 3,7 C 18,6 km/h (3 Bft)
23.11.2004 15:00 8,4 C 84 % 1025 hPa 0,0 l/m 5,8 C 4,2 C 15,6 km/h (3 Bft)
23.11.2004 16:00 8,0 C 88 % 1025 hPa 0,0 l/m 6,1 C 5,5 C 11,0 km/h (2 Bft)
23.11.2004 17:00 7,6 C 91 % 1025 hPa 0,0 l/m 6,2 C 4,6 C 12,2 km/h (2 Bft)
23.11.2004 18:00 7,4 C 91 % 1026 hPa 0,0 l/m 6,1 C 4,6 C 11,9 km/h (2 Bft)
23.11.2004 19:00 7,3 C 91 % 1026 hPa 0,0 l/m 5,9 C 4,4 C 11,7 km/h (2 Bft)
23.11.2004 20:00 7,1 C 92 % 1027 hPa 0,0 l/m 5,9 C 3,7 C 12,9 km/h (3 Bft)
23.11.2004 21:00 5,8 C 92 % 1028 hPa 0,0 l/m 4,6 C 3,9 C 9,5 km/h (2 Bft)
23.11.2004 22:00 5,0 C 91 % 1028 hPa 0,0 l/m 3,7 C 4,4 C 5,3 km/h (1 Bft)
23.11.2004 23:00 4,6 C 90 % 1028 hPa 0,0 l/m 3,1 C 4,5 C 2,2 km/h (1 Bft)
24.11.2004 00:00 4,3 C 92 % 1029 hPa 0,0 l/m 3,2 C 3,7 C 6,5 km/h (2 Bft)
24.11.2004 01:00 3,9 C 92 % 1029 hPa 0,0 l/m 2,7 C 3,1 C 7,4 km/h (2 Bft)
24.11.2004 02:00 3,5 C 88 % 1029 hPa 0,0 l/m 1,7 C 3,4 C 1,9 km/h (1 Bft)
24.11.2004 03:00 3,3 C 87 % 1029 hPa 0,0 l/m 1,4 C 2,5 C 4,5 km/h (1 Bft)
24.11.2004 04:00 3,0 C 87 % 1029 hPa 0,0 l/m 1,1 C 0,6 C 11,0 km/h (2 Bft)
24.11.2004 05:00 2,5 C 86 % 1029 hPa 0,0 l/m 0,5 C 1,9 C 6,1 km/h (2 Bft)
24.11.2004 06:00 2,0 C 89 % 1030 hPa 0,0 l/m 0,3 C 1,5 C 5,1 km/h (1 Bft)
24.11.2004 07:00 0,9 C 90 % 1030 hPa 0,0 l/m -0,6 C 0,9 C 0,0 km/h (0 Bft)
24.11.2004 08:00 0,2 C 93 % 1031 hPa 0,0 l/m -0,8 C -0,3 C 6,0 km/h (2 Bft)
24.11.2004 09:00 1,0 C 96 % 1031 hPa 0,0 l/m 0,4 C -0,2 C 6,7 km/h (2 Bft)
24.11.2004 10:00 2,4 C 85 % 1031 hPa 0,0 l/m 0,0 C -0,4 C 11,0 km/h (2 Bft)
24.11.2004 11:00 3,8 C 68 % 1031 hPa 0,0 l/m -1,6 C -0,6 C 13,2 km/h (3 Bft)
24.11.2004 12:00 5,0 C 60 % 1031 hPa 0,0 l/m -2,2 C 0,6 C 13,6 km/h (3 Bft)
24.11.2004 13:00 5,9 C 56 % 1030 hPa 0,0 l/m -2,3 C 1,3 C 14,1 km/h (3 Bft)
24.11.2004 14:00 5,8 C 55 % 1029 hPa 0,0 l/m -2,5 C 1,2 C 14,3 km/h (3 Bft)
24.11.2004 15:00 4,5 C 59 % 1029 hPa 0,0 l/m -2,8 C 0,5 C 13,2 km/h (3 Bft)
24.11.2004 16:00 3,1 C 66 % 1029 hPa 0,0 l/m -2,6 C 1,1 C 9,5 km/h (2 Bft)
24.11.2004 17:00 1,8 C 74 % 1029 hPa 0,0 l/m -2,3 C 1,0 C 6,6 km/h (2 Bft)
24.11.2004 18:00 0,8 C 78 % 1029 hPa 0,0 l/m -2,6 C 0,5 C 5,6 km/h (1 Bft)
24.11.2004 19:00 -0,1 C 83 % 1029 hPa 0,0 l/m -2,7 C -1,4 C 8,4 km/h (2 Bft)
24.11.2004 20:00 -0,8 C 89 % 1029 hPa 0,0 l/m -2,4 C -2,7 C 8,8 km/h (2 Bft)
24.11.2004 21:00 -1,1 C 95 % 1029 hPa 0,0 l/m -1,8 C -2,6 C 7,1 km/h (2 Bft)
24.11.2004 22:00 -0,7 C 97 % 1029 hPa 0,0 l/m -1,1 C -3,2 C 10,2 km/h (2 Bft)
24.11.2004 23:00 -0,6 C 96 % 1029 hPa 0,0 l/m -1,2 C -3,4 C 10,2 km/h (2 Bft)
25.11.2004 00:00 -1,0 C 97 % 1029 hPa 0,0 l/m -1,4 C -4,6 C 11,0 km/h (2 Bft)
25.11.2004 01:00 -1,2 C 98 % 1028 hPa 0,0 l/m -1,5 C -4,9 C 11,4 km/h (2 Bft)
25.11.2004 02:00 -1,3 C 99 % 1028 hPa 0,0 l/m -1,4 C -3,8 C 10,3 km/h (2 Bft)
25.11.2004 03:00 -1,4 C 100 % 1028 hPa 0,0 l/m -1,4 C -4,5 C 10,7 km/h (2 Bft)
25.11.2004 04:00 -1,4 C 100 % 1028 hPa 0,0 l/m -1,4 C -3,7 C 9,5 km/h (2 Bft)
25.11.2004 05:00 -1,3 C 100 % 1028 hPa 0,0 l/m -1,3 C -2,0 C 6,3 km/h (2 Bft)
25.11.2004 06:00 -1,4 C 100 % 1028 hPa 0,0 l/m -1,4 C -1,9 C 4,2 km/h (1 Bft)
25.11.2004 07:00 -1,5 C 100 % 1028 hPa 0,0 l/m -1,5 C -1,8 C 2,3 km/h (1 Bft)
25.11.2004 08:00 -1,5 C 100 % 1027 hPa 0,0 l/m -1,5 C -1,6 C 1,1 km/h (1 Bft)
25.11.2004 09:00 -1,3 C 100 % 1027 hPa 0,0 l/m -1,3 C -1,4 C 0,8 km/h (0 Bft)
25.11.2004 10:00 -1,0 C 100 % 1027 hPa 0,0 l/m -1,0 C -1,1 C 2,0 km/h (1 Bft)
25.11.2004 11:00 -0,4 C 97 % 1027 hPa 0,0 l/m -0,8 C -0,6 C 3,1 km/h (1 Bft)
25.11.2004 12:00 0,1 C 92 % 1026 hPa 0,0 l/m -1,0 C -0,4 C 2,7 km/h (1 Bft)
25.11.2004 13:00 0,5 C 88 % 1026 hPa 0,0 l/m -1,1 C 0,5 C 1,7 km/h (1 Bft)
25.11.2004 14:00 0,9 C 84 % 1026 hPa 0,0 l/m -1,5 C 0,7 C 2,0 km/h (1 Bft)
25.11.2004 15:00 0,7 C 85 % 1026 hPa 0,0 l/m -1,6 C 0,7 C 0,6 km/h (0 Bft)
25.11.2004 16:00 0,1 C 88 % 1026 hPa 0,0 l/m -1,7 C 0,0 C 1,9 km/h (1 Bft)
25.11.2004 17:00 -0,1 C 93 % 1026 hPa 0,0 l/m -1,1 C -1,5 C 8,7 km/h (2 Bft)
25.11.2004 18:00 -0,2 C 96 % 1026 hPa 0,0 l/m -0,8 C -1,7 C 8,3 km/h (2 Bft)
25.11.2004 19:00 0,1 C 97 % 1026 hPa 0,0 l/m -0,3 C -1,9 C 8,7 km/h (2 Bft)
25.11.2004 20:00 0,3 C 99 % 1026 hPa 0,0 l/m 0,1 C -1,0 C 7,9 km/h (2 Bft)
25.11.2004 21:00 0,3 C 100 % 1026 hPa 0,0 l/m 0,3 C -1,7 C 9,2 km/h (2 Bft)
25.11.2004 22:00 0,3 C 100 % 1026 hPa 0,0 l/m 0,3 C -1,5 C 8,0 km/h (2 Bft)
25.11.2004 23:00 0,2 C 100 % 1026 hPa 0,0 l/m 0,2 C -4,1 C 12,7 km/h (3 Bft)
26.11.2004 00:00 0,3 C 100 % 1026 hPa 0,0 l/m 0,3 C -2,0 C 10,0 km/h (2 Bft)
26.11.2004 01:00 0,3 C 100 % 1026 hPa 0,0 l/m 0,3 C -0,7 C 6,3 km/h (2 Bft)
26.11.2004 02:00 0,4 C 100 % 1026 hPa 0,0 l/m 0,4 C -1,2 C 7,6 km/h (2 Bft)
26.11.2004 03:00 0,5 C 100 % 1026 hPa 0,0 l/m 0,5 C -1,8 C 9,5 km/h (2 Bft)
26.11.2004 04:00 0,6 C 100 % 1026 hPa 0,0 l/m 0,6 C -1,3 C 8,6 km/h (2 Bft)
26.11.2004 05:00 0,7 C 100 % 1026 hPa 0,0 l/m 0,7 C -1,7 C 10,2 km/h (2 Bft)
26.11.2004 06:00 0,6 C 100 % 1026 hPa 0,0 l/m 0,6 C -1,8 C 9,2 km/h (2 Bft)
26.11.2004 07:00 0,4 C 100 % 1026 hPa 0,0 l/m 0,4 C -1,1 C 7,8 km/h (2 Bft)
26.11.2004 08:00 0,4 C 100 % 1026 hPa 0,0 l/m 0,4 C -3,0 C 11,5 km/h (2 Bft)
26.11.2004 09:00 0,8 C 100 % 1026 hPa 0,0 l/m 0,8 C -2,7 C 11,6 km/h (2 Bft)
26.11.2004 10:00 1,4 C 100 % 1026 hPa 0,0 l/m 1,4 C -1,8 C 11,5 km/h (2 Bft)
26.11.2004 11:00 2,2 C 100 % 1026 hPa 0,0 l/m 2,2 C 1,4 C 6,8 km/h (2 Bft)
26.11.2004 12:00 3,2 C 100 % 1026 hPa 0,0 l/m 3,2 C 1,4 C 9,0 km/h (2 Bft)
26.11.2004 13:00 4,3 C 100 % 1025 hPa 0,0 l/m 4,3 C 2,3 C 9,5 km/h (2 Bft)
26.11.2004 14:00 5,7 C 97 % 1024 hPa 0,0 l/m 5,2 C 1,9 C 12,7 km/h (3 Bft)
26.11.2004 15:00 5,7 C 89 % 1024 hPa 0,0 l/m 4,1 C 2,9 C 11,0 km/h (2 Bft)
26.11.2004 16:00 5,1 C 89 % 1024 hPa 0,0 l/m 3,5 C 3,9 C 6,2 km/h (2 Bft)
26.11.2004 17:00 4,2 C 90 % 1024 hPa 0,0 l/m 2,7 C 2,5 C 8,3 km/h (2 Bft)
26.11.2004 18:00 3,0 C 94 % 1024 hPa 0,0 l/m 2,2 C 0,9 C 9,3 km/h (2 Bft)
26.11.2004 19:00 3,1 C 98 % 1024 hPa 0,0 l/m 2,8 C 0,2 C 11,3 km/h (2 Bft)
26.11.2004 20:00 3,4 C 98 % 1025 hPa 0,0 l/m 3,1 C 0,1 C 12,1 km/h (2 Bft)
26.11.2004 21:00 3,2 C 99 % 1025 hPa 0,0 l/m 3,1 C 0,7 C 10,4 km/h (2 Bft)
26.11.2004 22:00 4,3 C 96 % 1025 hPa 0,0 l/m 3,7 C -0,0 C 14,5 km/h (3 Bft)
26.11.2004 23:00 4,6 C 95 % 1025 hPa 1,0 l/m 3,9 C 3,7 C 7,5 km/h (2 Bft)
27.11.2004 00:00 4,5 C 98 % 1025 hPa 0,0 l/m 4,1 C 3,7 C 6,9 km/h (2 Bft)
27.11.2004 01:00 4,7 C 98 % 1024 hPa 0,0 l/m 4,3 C 1,7 C 12,8 km/h (3 Bft)
27.11.2004 02:00 4,7 C 96 % 1024 hPa 0,0 l/m 4,2 C 1,8 C 12,1 km/h (2 Bft)
27.11.2004 03:00 4,8 C 97 % 1024 hPa 0,0 l/m 4,4 C 1,0 C 13,4 km/h (3 Bft)
27.11.2004 04:00 4,9 C 96 % 1024 hPa 0,0 l/m 4,3 C 2,6 C 10,7 km/h (2 Bft)
27.11.2004 05:00 4,6 C 98 % 1024 hPa 0,0 l/m 4,3 C 2,5 C 10,1 km/h (2 Bft)
27.11.2004 06:00 4,6 C 98 % 1024 hPa 0,0 l/m 4,3 C 3,1 C 7,8 km/h (2 Bft)
27.11.2004 07:00 4,7 C 98 % 1024 hPa 0,0 l/m 4,4 C 1,9 C 11,8 km/h (2 Bft)
27.11.2004 08:00 4,7 C 99 % 1025 hPa 1,0 l/m 4,5 C 1,1 C 13,1 km/h (3 Bft)
27.11.2004 09:00 4,6 C 100 % 1025 hPa 0,0 l/m 4,6 C 2,8 C 9,3 km/h (2 Bft)
27.11.2004 10:00 5,1 C 100 % 1025 hPa 0,0 l/m 5,1 C 3,7 C 8,3 km/h (2 Bft)
27.11.2004 11:00 5,7 C 100 % 1026 hPa 0,0 l/m 5,7 C 2,4 C 11,6 km/h (2 Bft)
27.11.2004 12:00 6,6 C 95 % 1025 hPa 0,0 l/m 5,9 C 3,5 C 12,0 km/h (2 Bft)
27.11.2004 13:00 7,2 C 90 % 1025 hPa 0,0 l/m 5,6 C 5,5 C 9,1 km/h (2 Bft)
27.11.2004 14:00 7,2 C 89 % 1024 hPa 0,0 l/m 5,5 C 5,0 C 10,0 km/h (2 Bft)
27.11.2004 15:00 7,1 C 89 % 1024 hPa 0,0 l/m 5,4 C 5,8 C 9,4 km/h (2 Bft)
27.11.2004 16:00 6,7 C 88 % 1024 hPa 0,0 l/m 4,9 C 6,3 C 3,4 km/h (1 Bft)
27.11.2004 17:00 6,1 C 91 % 1024 hPa 0,0 l/m 4,7 C 5,6 C 4,3 km/h (1 Bft)
27.11.2004 18:00 5,8 C 90 % 1024 hPa 0,0 l/m 4,4 C 5,8 C 1,3 km/h (1 Bft)
27.11.2004 19:00 5,2 C 90 % 1024 hPa 0,0 l/m 3,8 C 5,2 C 0,0 km/h (0 Bft)
27.11.2004 20:00 4,6 C 93 % 1024 hPa 0,0 l/m 3,5 C 4,6 C 0,0 km/h (0 Bft)
27.11.2004 21:00 3,8 C 95 % 1024 hPa 0,0 l/m 3,0 C 3,8 C 0,0 km/h (0 Bft)
27.11.2004 22:00 2,7 C 96 % 1024 hPa 0,0 l/m 2,0 C 2,7 C 0,0 km/h (0 Bft)
27.11.2004 23:00 1,6 C 97 % 1023 hPa 0,0 l/m 1,1 C 1,6 C 0,0 km/h (0 Bft)
28.11.2004 00:00 0,9 C 98 % 1023 hPa 0,0 l/m 0,6 C 0,9 C 0,0 km/h (0 Bft)
28.11.2004 01:00 0,7 C 99 % 1022 hPa 0,0 l/m 0,5 C 0,7 C 0,0 km/h (0 Bft)
28.11.2004 02:00 0,2 C 100 % 1021 hPa 0,0 l/m 0,2 C 0,2 C 0,0 km/h (0 Bft)
28.11.2004 03:00 0,5 C 100 % 1021 hPa 0,0 l/m 0,5 C 0,5 C 0,0 km/h (0 Bft)
28.11.2004 04:00 -0,1 C 100 % 1020 hPa 0,0 l/m -0,1 C -0,1 C 0,0 km/h (0 Bft)
28.11.2004 05:00 -0,6 C 100 % 1019 hPa 0,0 l/m -0,6 C -0,6 C 0,0 km/h (0 Bft)
28.11.2004 06:00 -1,0 C 100 % 1019 hPa 0,0 l/m -1,0 C -1,0 C 0,0 km/h (0 Bft)
28.11.2004 07:00 -0,9 C 100 % 1019 hPa 0,0 l/m -0,9 C -0,9 C 0,0 km/h (0 Bft)
28.11.2004 08:00 -0,2 C 100 % 1019 hPa 0,0 l/m -0,2 C -0,2 C 0,0 km/h (0 Bft)
28.11.2004 09:00 0,3 C 100 % 1019 hPa 0,0 l/m 0,3 C 0,2 C 0,4 km/h (0 Bft)
28.11.2004 10:00 1,0 C 100 % 1018 hPa 0,0 l/m 1,0 C -4,8 C 14,6 km/h (3 Bft)
28.11.2004 11:00 1,6 C 100 % 1018 hPa 0,0 l/m 1,6 C -0,9 C 10,3 km/h (2 Bft)
28.11.2004 12:00 2,5 C 100 % 1017 hPa 0,0 l/m 2,5 C 0,2 C 11,0 km/h (2 Bft)
28.11.2004 13:00 3,2 C 100 % 1016 hPa 0,0 l/m 3,2 C 1,4 C 9,3 km/h (2 Bft)
28.11.2004 14:00 3,4 C 100 % 1015 hPa 0,0 l/m 3,4 C -0,9 C 13,2 km/h (3 Bft)
28.11.2004 15:00 3,3 C 100 % 1014 hPa 0,0 l/m 3,3 C 2,9 C 3,3 km/h (1 Bft)
28.11.2004 16:00 2,8 C 100 % 1014 hPa 0,0 l/m 2,8 C 1,0 C 7,8 km/h (2 Bft)
28.11.2004 17:00 2,7 C 100 % 1014 hPa 0,0 l/m 2,7 C 1,9 C 5,7 km/h (1 Bft)
28.11.2004 18:00 2,5 C 100 % 1014 hPa 0,0 l/m 2,5 C 0,7 C 8,7 km/h (2 Bft)
28.11.2004 19:00 2,3 C 100 % 1014 hPa 0,0 l/m 2,3 C 2,0 C 5,0 km/h (1 Bft)
28.11.2004 20:00 2,3 C 100 % 1014 hPa 0,0 l/m 2,3 C 2,2 C 0,7 km/h (0 Bft)
28.11.2004 21:00 2,2 C 100 % 1014 hPa 0,0 l/m 2,2 C 2,2 C 0,0 km/h (0 Bft)
28.11.2004 22:00 2,1 C 100 % 1014 hPa 0,0 l/m 2,1 C 2,1 C 0,0 km/h (0 Bft)
28.11.2004 23:00 2,1 C 100 % 1014 hPa 0,0 l/m 2,1 C 2,1 C 0,0 km/h (0 Bft)
Min-Datum _ 25.11.04 24.11.04 28.11.04 - 24.11.04 25.11.04 22.11.04
_ Min-Zeit 08:19 13:29 22:42 - 19:13 04:05 00:15
Minimum _ -1,6 C 54 % 1013 hPa - -3,1 C -8,7 C 0,0 km/h (0 Bft)
Max-Datum _ 22.11.04 22.11.04 24.11.04 22.11.04 23.11.04 23.11.04 22.11.04
_ Max-Zeit 15:03 04:20 08:42 01:27 12:14 14:02 14:53
Maximum _ 8,9 C 100 % 1031 hPa 1,0 l/m 6,9 C 8,9 C 50,4 km/h
S-SO (7 Bft)
Durchschnitt _ 3,4 C 92 % 1025 hPa #4,0 l/m 2,1 C 0,8 C 9,7 km/h (2 Bft)

Durchschnitt Minimum Temp.3,0 C
Durchschnitt Maximum Temp.3,7 C